GEFSGL_prec_meanprecacc_036.txt.gz
Total_Precipitation_Accumulation
0.93 1.02 1.06 0.85 0.60 0.48 0.46 0.41 0.38 0.39 0.41 0.47 0.44 0.42 0.46 0.49 0.46 0.50 0.55 0.61 0.66 0.65 0.59 0.53 0.51 0.49 0.51 0.50 0.50 0.51 0.50 0.45 0.35 0.34 0.27 0.22 0.26 0.26 0.26 0.18 0.13 0.10 0.08
0.80 0.78 0.65 0.47 0.37 0.34 0.30 0.24 0.20 0.20 0.20 0.26 0.28 0.28 0.35 0.45 0.46 0.48 0.49 0.47 0.49 0.50 0.48 0.48 0.47 0.45 0.44 0.40 0.40 0.40 0.43 0.42 0.36 0.31 0.27 0.22 0.23 0.26 0.30 0.29 0.25 0.22 0.19
0.44 0.42 0.39 0.32 0.30 0.26 0.21 0.19 0.16 0.16 0.15 0.19 0.22 0.25 0.28 0.36 0.46 0.50 0.50 0.42 0.38 0.35 0.33 0.34 0.38 0.39 0.40 0.37 0.34 0.36 0.38 0.37 0.39 0.32 0.30 0.28 0.23 0.20 0.24 0.25 0.26 0.33 0.30
0.25 0.23 0.22 0.22 0.23 0.23 0.23 0.23 0.18 0.14 0.15 0.15 0.14 0.15 0.23 0.34 0.41 0.48 0.50 0.44 0.38 0.35 0.35 0.33 0.31 0.29 0.29 0.32 0.34 0.41 0.43 0.47 0.47 0.41 0.39 0.37 0.33 0.27 0.26 0.30 0.36 0.42 0.43
0.15 0.15 0.18 0.18 0.18 0.18 0.20 0.20 0.17 0.14 0.11 0.08 0.06 0.08 0.16 0.21 0.25 0.38 0.42 0.40 0.39 0.35 0.35 0.38 0.35 0.29 0.24 0.23 0.21 0.27 0.31 0.42 0.46 0.46 0.46 0.46 0.43 0.35 0.31 0.38 0.43 0.50 0.52
0.03 0.05 0.07 0.11 0.12 0.15 0.15 0.15 0.13 0.11 0.09 0.07 0.05 0.05 0.07 0.08 0.13 0.19 0.27 0.36 0.41 0.41 0.40 0.42 0.38 0.31 0.31 0.24 0.18 0.16 0.18 0.21 0.28 0.33 0.37 0.41 0.45 0.46 0.49 0.49 0.51 0.49 0.49
0.01 0.01 0.02 0.03 0.04 0.05 0.05 0.05 0.05 0.04 0.04 0.03 0.03 0.04 0.04 0.03 0.03 0.06 0.15 0.30 0.41 0.40 0.38 0.49 0.54 0.48 0.44 0.42 0.37 0.26 0.19 0.14 0.17 0.22 0.31 0.35 0.35 0.38 0.45 0.50 0.56 0.58 0.48
0.00 0.00 0.00 0.01 0.01 0.02 0.02 0.02 0.02 0.02 0.02 0.02 0.04 0.06 0.04 0.01 0.01 0.01 0.06 0.19 0.30 0.33 0.32 0.42 0.63 0.64 0.59 0.55 0.56 0.59 0.45 0.29 0.24 0.20 0.26 0.26 0.23 0.29 0.40 0.46 0.45 0.32 0.24
0.00 0.00 0.00 0.00 0.01 0.01 0.01 0.01 0.00 0.01 0.02 0.02 0.02 0.04 0.04 0.03 0.02 0.01 0.04 0.12 0.19 0.23 0.26 0.35 0.49 0.60 0.60 0.59 0.55 0.56 0.52 0.37 0.31 0.26 0.17 0.14 0.14 0.18 0.25 0.34 0.36 0.29 0.20
0.00 0.00 0.00 0.00 0.01 0.01 0.01 0.01 0.01 0.01 0.02 0.02 0.01 0.01 0.01 0.01 0.01 0.02 0.01 0.03 0.06 0.08 0.13 0.22 0.36 0.40 0.41 0.44 0.50 0.57 0.63 0.43 0.32 0.33 0.27 0.21 0.18 0.23 0.35 0.44 0.45 0.40 0.31
0.00 0.00 0.01 0.01 0.01 0.02 0.02 0.02 0.01 0.01 0.02 0.02 0.02 0.02 0.02 0.01 0.01 0.02 0.02 0.01 0.02 0.04 0.05 0.12 0.16 0.19 0.23 0.31 0.39 0.47 0.58 0.43 0.38 0.42 0.37 0.26 0.24 0.25 0.29 0.31 0.34 0.40 0.38
0.00 0.01 0.01 0.01 0.01 0.01 0.03 0.02 0.01 0.01 0.02 0.03 0.05 0.05 0.05 0.04 0.02 0.01 0.02 0.02 0.02 0.05 0.05 0.07 0.08 0.09 0.12 0.16 0.21 0.27 0.36 0.41 0.42 0.46 0.42 0.28 0.19 0.18 0.14 0.13 0.14 0.18 0.21
0.00 0.01 0.00 0.01 0.01 0.01 0.01 0.01 0.01 0.01 0.01 0.02 0.04 0.06 0.06 0.06 0.04 0.02 0.02 0.02 0.03 0.06 0.05 0.06 0.05 0.06 0.09 0.11 0.13 0.18 0.27 0.39 0.47 0.45 0.36 0.24 0.15 0.13 0.10 0.10 0.11 0.13 0.12
0.00 0.00 0.00 0.00 0.01 0.02 0.01 0.00 0.01 0.01 0.01 0.01 0.02 0.04 0.05 0.07 0.04 0.03 0.05 0.06 0.06 0.07 0.07 0.06 0.05 0.07 0.09 0.11 0.15 0.19 0.29 0.41 0.47 0.40 0.29 0.19 0.12 0.11 0.10 0.08 0.08 0.08 0.08
0.00 0.00 0.00 0.00 0.01 0.02 0.01 0.00 0.00 0.00 0.00 0.01 0.02 0.03 0.02 0.03 0.02 0.01 0.03 0.04 0.05 0.05 0.08 0.12 0.13 0.15 0.17 0.21 0.27 0.34 0.36 0.36 0.38 0.33 0.29 0.21 0.16 0.14 0.08 0.04 0.02 0.02 0.04
0.00 0.00 0.00 0.00 0.01 0.01 0.02 0.01 0.00 0.00 0.00 0.00 0.00 0.01 0.02 0.00 0.00 0.01 0.01 0.02 0.02 0.04 0.11 0.17 0.22 0.26 0.27 0.31 0.36 0.40 0.41 0.39 0.37 0.32 0.25 0.20 0.15 0.11 0.07 0.04 0.03 0.04 0.06
0.00 0.00 0.00 0.00 0.00 0.00 0.01 0.03 0.03 0.02 0.01 0.00 0.00 0.00 0.00 0.00 0.00 0.01 0.01 0.02 0.02 0.04 0.09 0.20 0.38 0.41 0.35 0.38 0.39 0.38 0.31 0.24 0.23 0.20 0.15 0.09 0.06 0.04 0.04 0.03 0.03 0.02 0.02
0.00 0.00 0.00 0.00 0.00 0.00 0.00 0.00 0.01 0.03 0.04 0.04 0.02 0.00 0.00 0.00 0.00 0.01 0.01 0.03 0.03 0.03 0.05 0.12 0.24 0.27 0.28 0.30 0.27 0.23 0.16 0.12 0.10 0.07 0.04 0.02 0.02 0.01 0.01 0.01 0.01 0.01 0.01
0.00 0.00 0.00 0.00 0.00 0.00 0.00 0.00 0.00 0.00 0.01 0.03 0.03 0.01 0.00 0.00 0.00 0.00 0.01 0.02 0.03 0.04 0.06 0.10 0.13 0.15 0.14 0.12 0.10 0.08 0.06 0.04 0.03 0.02 0.02 0.01 0.02 0.01 0.01 0.01 0.01 0.00 0.01
0.00 0.00 0.00 0.00 0.00 0.00 0.00 0.00 0.00 0.00 0.01 0.01 0.01 0.01 0.01 0.02 0.03 0.02 0.01 0.02 0.02 0.03 0.04 0.05 0.05 0.05 0.04 0.03 0.02 0.02 0.02 0.01 0.01 0.01 0.01 0.01 0.01 0.01 0.01 0.01 0.01 0.01 0.01
0.00 0.00 0.00 0.00 0.00 0.00 0.00 0.00 0.00 0.00 0.01 0.01 0.00 0.00 0.00 0.01 0.01 0.02 0.02 0.01 0.01 0.02 0.01 0.01 0.01 0.00 0.01 0.01 0.01 0.01 0.01 0.00 0.00 0.00 0.00 0.01 0.02 0.02 0.01 0.01 0.01 0.01 0.01
0.00 0.00 0.00 0.00 0.00 0.00 0.00 0.00 0.01 0.01 0.01 0.01 0.00 0.00 0.00 0.01 0.01 0.01 0.01 0.01 0.01 0.00 0.00 0.00 0.00 0.00 0.00 0.00 0.00 0.00 0.00 0.00 0.00 0.00 0.00 0.01 0.01 0.01 0.01 0.01 0.00 0.00 0.00
0.00 0.00 0.00 0.00 0.00 0.00 0.00 0.00 0.01 0.01 0.02 0.01 0.01 0.01 0.01 0.01 0.01 0.01 0.01 0.00 0.00 0.00 0.00 0.00 0.00 0.00 0.00 0.00 0.00 0.00 0.00 0.00 0.00 0.00 0.01 0.01 0.01 0.01 0.00 0.00 0.00 0.00 0.00
0.00 0.00 0.00 0.00 0.00 0.00 0.00 0.00 0.00 0.01 0.02 0.02 0.02 0.01 0.01 0.01 0.01 0.01 0.01 0.00 0.00 0.00 0.00 0.00 0.00 0.00 0.00 0.00 0.00 0.00 0.00 0.00 0.00 0.01 0.01 0.01 0.01 0.00 0.00 0.00 0.00 0.00 0.00
0.00 0.00 0.00 0.00 0.00 0.00 0.00 0.00 0.00 0.01 0.02 0.02 0.02 0.02 0.01 0.01 0.01 0.01 0.01 0.00 0.00 0.00 0.00 0.00 0.00 0.00 0.00 0.00 0.00 0.00 0.00 0.00 0.00 0.00 0.00 0.00 0.00 0.00 0.00 0.00 0.00 0.00 0.00
0.00 0.00 0.00 0.00 0.00 0.00 0.00 0.00 0.00 0.01 0.02 0.02 0.01 0.01 0.01 0.00 0.00 0.00 0.00 0.00 0.00 0.00 0.00 0.00 0.00 0.00 0.00 0.00 0.00 0.00 0.00 0.00 0.00 0.00 0.00 0.00 0.00 0.00 0.00 0.00 0.00 0.00 0.00

GEFSGL_prec_meanprecacc_042.txt.gz
Total_Precipitation_Accumulation
0.93 1.03 1.06 0.85 0.60 0.49 0.47 0.45 0.44 0.46 0.50 0.58 0.53 0.49 0.54 0.57 0.53 0.58 0.64 0.72 0.79 0.80 0.78 0.78 0.80 0.77 0.79 0.79 0.79 0.75 0.70 0.61 0.47 0.43 0.33 0.28 0.32 0.33 0.34 0.26 0.22 0.18 0.14
0.80 0.78 0.65 0.47 0.37 0.34 0.30 0.25 0.22 0.22 0.22 0.29 0.31 0.32 0.39 0.49 0.50 0.53 0.52 0.50 0.54 0.57 0.56 0.57 0.58 0.59 0.63 0.63 0.62 0.61 0.61 0.59 0.50 0.41 0.34 0.27 0.27 0.32 0.38 0.36 0.33 0.29 0.26
0.44 0.42 0.39 0.32 0.30 0.26 0.21 0.19 0.17 0.16 0.16 0.20 0.23 0.26 0.29 0.38 0.48 0.53 0.53 0.44 0.39 0.37 0.36 0.37 0.41 0.44 0.47 0.46 0.45 0.47 0.50 0.48 0.47 0.39 0.36 0.34 0.27 0.24 0.29 0.31 0.33 0.42 0.39
0.25 0.23 0.22 0.22 0.23 0.23 0.23 0.23 0.18 0.14 0.15 0.15 0.14 0.16 0.23 0.34 0.42 0.49 0.52 0.46 0.40 0.38 0.37 0.34 0.33 0.31 0.32 0.37 0.40 0.47 0.50 0.54 0.53 0.46 0.44 0.41 0.36 0.30 0.30 0.35 0.43 0.51 0.52
0.15 0.15 0.18 0.18 0.18 0.18 0.20 0.20 0.17 0.14 0.11 0.08 0.06 0.08 0.16 0.21 0.25 0.38 0.43 0.41 0.41 0.37 0.37 0.39 0.36 0.31 0.26 0.26 0.25 0.31 0.37 0.47 0.51 0.51 0.50 0.50 0.46 0.39 0.35 0.43 0.50 0.57 0.61
0.03 0.05 0.08 0.11 0.13 0.15 0.15 0.15 0.13 0.11 0.09 0.07 0.05 0.05 0.07 0.08 0.13 0.19 0.27 0.37 0.42 0.43 0.42 0.44 0.39 0.33 0.33 0.27 0.21 0.20 0.22 0.26 0.32 0.37 0.40 0.45 0.48 0.51 0.55 0.55 0.58 0.57 0.60
0.01 0.01 0.02 0.03 0.04 0.05 0.05 0.05 0.05 0.04 0.04 0.03 0.03 0.04 0.04 0.03 0.03 0.06 0.15 0.31 0.42 0.42 0.40 0.50 0.56 0.49 0.46 0.45 0.41 0.29 0.22 0.18 0.21 0.26 0.35 0.39 0.39 0.42 0.50 0.57 0.63 0.67 0.58
0.00 0.00 0.00 0.01 0.01 0.02 0.02 0.02 0.02 0.02 0.02 0.02 0.04 0.06 0.04 0.01 0.01 0.01 0.06 0.20 0.31 0.35 0.34 0.43 0.65 0.66 0.61 0.58 0.60 0.63 0.48 0.31 0.28 0.25 0.31 0.31 0.28 0.34 0.48 0.57 0.56 0.44 0.36
0.00 0.00 0.00 0.00 0.01 0.01 0.01 0.01 0.00 0.01 0.02 0.02 0.03 0.05 0.04 0.03 0.02 0.01 0.04 0.13 0.20 0.25 0.27 0.38 0.51 0.64 0.62 0.62 0.59 0.60 0.55 0.41 0.35 0.30 0.21 0.19 0.20 0.27 0.35 0.44 0.47 0.40 0.31
0.00 0.00 0.00 0.00 0.01 0.01 0.01 0.01 0.01 0.01 0.02 0.02 0.01 0.01 0.01 0.01 0.01 0.02 0.02 0.05 0.09 0.10 0.14 0.25 0.41 0.46 0.45 0.50 0.55 0.61 0.68 0.48 0.37 0.37 0.32 0.28 0.26 0.33 0.48 0.57 0.55 0.48 0.37
0.00 0.00 0.01 0.01 0.01 0.02 0.02 0.02 0.01 0.01 0.02 0.02 0.02 0.02 0.02 0.01 0.01 0.02 0.03 0.04 0.06 0.06 0.08 0.16 0.22 0.27 0.30 0.37 0.45 0.52 0.65 0.51 0.47 0.50 0.46 0.37 0.35 0.37 0.42 0.44 0.49 0.52 0.44
0.00 0.01 0.01 0.01 0.01 0.01 0.03 0.02 0.01 0.01 0.02 0.03 0.05 0.05 0.05 0.04 0.02 0.02 0.04 0.05 0.06 0.07 0.09 0.12 0.14 0.15 0.18 0.23 0.27 0.35 0.45 0.50 0.51 0.56 0.53 0.40 0.32 0.32 0.29 0.27 0.28 0.30 0.29
0.00 0.01 0.00 0.01 0.01 0.01 0.01 0.01 0.01 0.01 0.01 0.02 0.04 0.06 0.06 0.06 0.04 0.02 0.03 0.03 0.05 0.08 0.08 0.10 0.10 0.12 0.16 0.18 0.21 0.27 0.36 0.48 0.58 0.56 0.46 0.34 0.27 0.25 0.23 0.23 0.22 0.21 0.16
0.00 0.00 0.00 0.00 0.01 0.02 0.01 0.00 0.01 0.01 0.01 0.01 0.02 0.04 0.05 0.07 0.04 0.03 0.05 0.06 0.06 0.08 0.09 0.08 0.07 0.12 0.16 0.17 0.21 0.29 0.41 0.51 0.55 0.47 0.35 0.25 0.18 0.19 0.20 0.17 0.14 0.11 0.10
0.00 0.00 0.00 0.00 0.01 0.02 0.01 0.00 0.00 0.00 0.00 0.01 0.02 0.03 0.02 0.03 0.02 0.01 0.03 0.04 0.05 0.05 0.09 0.14 0.15 0.19 0.23 0.27 0.37 0.44 0.45 0.43 0.43 0.37 0.32 0.24 0.19 0.17 0.12 0.07 0.04 0.03 0.05
0.00 0.00 0.00 0.00 0.01 0.01 0.02 0.01 0.00 0.00 0.00 0.00 0.00 0.01 0.02 0.00 0.00 0.01 0.01 0.02 0.02 0.04 0.12 0.19 0.25 0.30 0.32 0.38 0.44 0.47 0.47 0.44 0.40 0.35 0.28 0.21 0.16 0.12 0.08 0.05 0.03 0.04 0.06
0.00 0.00 0.00 0.00 0.00 0.00 0.01 0.03 0.03 0.02 0.01 0.00 0.00 0.00 0.00 0.00 0.00 0.01 0.01 0.02 0.02 0.04 0.10 0.20 0.39 0.42 0.37 0.41 0.43 0.42 0.35 0.28 0.25 0.22 0.16 0.10 0.06 0.04 0.04 0.03 0.03 0.02 0.02
0.00 0.00 0.00 0.00 0.00 0.00 0.00 0.00 0.01 0.03 0.04 0.04 0.02 0.00 0.00 0.00 0.00 0.01 0.01 0.03 0.03 0.03 0.05 0.12 0.24 0.27 0.29 0.31 0.28 0.25 0.18 0.13 0.11 0.08 0.04 0.02 0.02 0.01 0.01 0.01 0.01 0.01 0.01
0.00 0.00 0.00 0.00 0.00 0.00 0.00 0.00 0.00 0.00 0.01 0.03 0.03 0.01 0.00 0.00 0.00 0.00 0.01 0.02 0.03 0.04 0.06 0.10 0.13 0.15 0.14 0.13 0.11 0.09 0.07 0.05 0.04 0.03 0.02 0.01 0.02 0.01 0.01 0.01 0.01 0.00 0.01
0.00 0.00 0.00 0.00 0.00 0.00 0.00 0.00 0.00 0.00 0.01 0.01 0.01 0.01 0.01 0.02 0.03 0.02 0.01 0.02 0.02 0.03 0.04 0.05 0.05 0.05 0.04 0.03 0.02 0.02 0.02 0.01 0.01 0.01 0.01 0.01 0.01 0.01 0.01 0.01 0.01 0.01 0.01
0.00 0.00 0.00 0.00 0.00 0.00 0.00 0.00 0.00 0.00 0.01 0.01 0.00 0.00 0.00 0.01 0.01 0.02 0.02 0.01 0.01 0.02 0.01 0.01 0.01 0.00 0.01 0.01 0.01 0.01 0.01 0.00 0.00 0.00 0.00 0.01 0.02 0.02 0.01 0.01 0.01 0.01 0.01
0.00 0.00 0.00 0.00 0.00 0.00 0.00 0.00 0.01 0.01 0.01 0.01 0.00 0.00 0.00 0.01 0.01 0.01 0.01 0.01 0.01 0.00 0.00 0.00 0.00 0.00 0.00 0.00 0.00 0.00 0.00 0.00 0.00 0.00 0.00 0.01 0.01 0.01 0.01 0.01 0.00 0.00 0.00
0.00 0.00 0.00 0.00 0.00 0.00 0.00 0.00 0.01 0.01 0.02 0.01 0.01 0.01 0.01 0.01 0.01 0.01 0.01 0.00 0.00 0.00 0.00 0.00 0.00 0.00 0.00 0.00 0.00 0.00 0.00 0.00 0.00 0.00 0.01 0.01 0.01 0.01 0.00 0.00 0.00 0.00 0.00
0.00 0.00 0.00 0.00 0.00 0.00 0.00 0.00 0.00 0.01 0.02 0.02 0.02 0.01 0.01 0.01 0.01 0.01 0.01 0.00 0.00 0.00 0.00 0.00 0.00 0.00 0.00 0.00 0.00 0.00 0.00 0.00 0.00 0.01 0.01 0.01 0.01 0.00 0.00 0.00 0.00 0.00 0.00
0.00 0.00 0.00 0.00 0.00 0.00 0.00 0.00 0.00 0.01 0.02 0.02 0.02 0.02 0.01 0.01 0.01 0.01 0.01 0.00 0.00 0.00 0.00 0.00 0.00 0.00 0.00 0.00 0.00 0.00 0.00 0.00 0.00 0.00 0.00 0.00 0.00 0.00 0.00 0.00 0.00 0.00 0.00
0.00 0.00 0.00 0.00 0.00 0.00 0.00 0.00 0.00 0.01 0.02 0.02 0.01 0.01 0.01 0.00 0.00 0.00 0.00 0.00 0.00 0.00 0.00 0.00 0.00 0.00 0.00 0.00 0.00 0.00 0.00 0.00 0.00 0.00 0.00 0.00 0.00 0.00 0.00 0.00 0.00 0.00 0.00

GEFSGL_prec_meanprecacc_048.txt.gz
Total_Precipitation_Accumulation
0.93 1.03 1.06 0.85 0.60 0.49 0.47 0.45 0.44 0.47 0.52 0.60 0.55 0.52 0.57 0.60 0.57 0.63 0.72 0.81 0.87 0.89 0.89 0.91 0.94 0.95 0.99 1.00 1.03 1.03 1.00 0.90 0.70 0.60 0.46 0.38 0.40 0.41 0.42 0.36 0.33 0.31 0.27
0.80 0.78 0.65 0.47 0.37 0.34 0.30 0.25 0.22 0.22 0.22 0.29 0.32 0.32 0.40 0.50 0.51 0.56 0.59 0.59 0.62 0.65 0.65 0.68 0.71 0.72 0.78 0.81 0.83 0.85 0.89 0.90 0.80 0.69 0.55 0.42 0.39 0.43 0.50 0.49 0.45 0.43 0.42
0.44 0.42 0.39 0.32 0.30 0.26 0.21 0.19 0.17 0.16 0.16 0.20 0.23 0.26 0.29 0.38 0.49 0.55 0.56 0.51 0.48 0.44 0.42 0.44 0.49 0.53 0.58 0.61 0.62 0.68 0.74 0.78 0.79 0.70 0.65 0.56 0.45 0.39 0.44 0.45 0.47 0.56 0.56
0.25 0.23 0.22 0.22 0.23 0.23 0.23 0.23 0.18 0.14 0.15 0.15 0.14 0.16 0.24 0.34 0.42 0.50 0.53 0.48 0.44 0.42 0.41 0.38 0.37 0.37 0.39 0.46 0.54 0.65 0.72 0.80 0.83 0.76 0.75 0.70 0.60 0.49 0.45 0.51 0.58 0.64 0.64
0.15 0.15 0.18 0.18 0.18 0.18 0.20 0.20 0.17 0.14 0.11 0.08 0.06 0.08 0.16 0.21 0.26 0.39 0.44 0.42 0.43 0.40 0.39 0.41 0.39 0.34 0.31 0.33 0.34 0.43 0.52 0.67 0.74 0.78 0.79 0.78 0.72 0.60 0.52 0.56 0.62 0.71 0.74
0.03 0.05 0.08 0.11 0.13 0.15 0.15 0.15 0.13 0.11 0.09 0.07 0.05 0.05 0.07 0.08 0.13 0.20 0.28 0.37 0.43 0.45 0.43 0.45 0.41 0.35 0.36 0.32 0.29 0.29 0.35 0.41 0.48 0.53 0.59 0.65 0.69 0.70 0.72 0.69 0.69 0.69 0.73
0.01 0.01 0.02 0.03 0.04 0.05 0.05 0.05 0.05 0.04 0.04 0.03 0.03 0.04 0.04 0.03 0.04 0.07 0.16 0.31 0.43 0.43 0.41 0.51 0.57 0.51 0.47 0.48 0.46 0.35 0.29 0.28 0.33 0.39 0.48 0.53 0.54 0.57 0.66 0.72 0.75 0.77 0.67
0.00 0.00 0.00 0.01 0.01 0.02 0.02 0.02 0.02 0.02 0.02 0.02 0.04 0.06 0.04 0.01 0.01 0.02 0.07 0.20 0.32 0.36 0.35 0.45 0.67 0.68 0.62 0.59 0.63 0.66 0.52 0.36 0.34 0.33 0.41 0.42 0.41 0.51 0.66 0.75 0.71 0.55 0.46
0.00 0.00 0.00 0.00 0.01 0.01 0.01 0.01 0.00 0.01 0.02 0.02 0.03 0.05 0.04 0.03 0.02 0.02 0.05 0.14 0.21 0.26 0.29 0.41 0.54 0.65 0.64 0.64 0.62 0.63 0.59 0.46 0.40 0.37 0.30 0.30 0.32 0.41 0.54 0.63 0.62 0.52 0.41
0.00 0.00 0.00 0.00 0.01 0.01 0.01 0.01 0.01 0.01 0.02 0.02 0.01 0.01 0.01 0.01 0.02 0.03 0.03 0.07 0.10 0.11 0.17 0.29 0.45 0.48 0.47 0.53 0.59 0.66 0.71 0.53 0.41 0.42 0.39 0.37 0.36 0.46 0.65 0.74 0.71 0.59 0.45
0.00 0.00 0.01 0.01 0.01 0.02 0.02 0.02 0.01 0.01 0.02 0.02 0.02 0.02 0.02 0.01 0.02 0.03 0.05 0.05 0.07 0.07 0.10 0.20 0.26 0.31 0.32 0.40 0.49 0.59 0.70 0.55 0.51 0.55 0.51 0.44 0.46 0.48 0.56 0.60 0.65 0.66 0.54
0.00 0.01 0.01 0.01 0.01 0.01 0.03 0.02 0.01 0.01 0.02 0.03 0.05 0.05 0.05 0.04 0.02 0.03 0.05 0.06 0.07 0.07 0.11 0.16 0.18 0.19 0.20 0.25 0.31 0.41 0.52 0.56 0.57 0.61 0.57 0.45 0.42 0.44 0.41 0.42 0.46 0.47 0.44
0.00 0.01 0.00 0.01 0.01 0.01 0.01 0.01 0.01 0.01 0.01 0.02 0.04 0.06 0.06 0.07 0.04 0.02 0.03 0.05 0.06 0.09 0.11 0.14 0.15 0.17 0.20 0.22 0.25 0.32 0.44 0.57 0.67 0.62 0.52 0.40 0.35 0.37 0.37 0.38 0.41 0.42 0.36
0.00 0.00 0.00 0.00 0.01 0.02 0.01 0.00 0.01 0.01 0.01 0.01 0.02 0.04 0.05 0.07 0.04 0.03 0.05 0.07 0.07 0.09 0.10 0.11 0.11 0.17 0.21 0.20 0.25 0.35 0.48 0.62 0.68 0.56 0.45 0.33 0.29 0.36 0.38 0.33 0.30 0.29 0.27
0.00 0.00 0.00 0.00 0.01 0.02 0.01 0.00 0.00 0.00 0.00 0.01 0.02 0.03 0.02 0.03 0.02 0.01 0.03 0.04 0.05 0.05 0.09 0.14 0.16 0.21 0.25 0.31 0.41 0.49 0.50 0.49 0.52 0.46 0.42 0.35 0.31 0.34 0.31 0.25 0.20 0.16 0.15
0.00 0.00 0.00 0.00 0.01 0.01 0.02 0.01 0.00 0.00 0.00 0.00 0.00 0.01 0.02 0.00 0.00 0.01 0.01 0.02 0.02 0.04 0.12 0.19 0.25 0.31 0.34 0.41 0.47 0.49 0.49 0.46 0.45 0.42 0.36 0.31 0.26 0.24 0.22 0.17 0.14 0.12 0.12
0.00 0.00 0.00 0.00 0.00 0.00 0.01 0.03 0.03 0.02 0.01 0.00 0.00 0.00 0.00 0.00 0.00 0.01 0.01 0.02 0.02 0.04 0.10 0.20 0.39 0.43 0.38 0.42 0.44 0.43 0.35 0.29 0.26 0.25 0.21 0.16 0.11 0.09 0.09 0.09 0.07 0.06 0.05
0.00 0.00 0.00 0.00 0.00 0.00 0.00 0.00 0.01 0.03 0.04 0.04 0.02 0.00 0.00 0.00 0.00 0.01 0.01 0.03 0.03 0.03 0.05 0.12 0.24 0.27 0.29 0.31 0.29 0.26 0.19 0.13 0.12 0.08 0.06 0.04 0.03 0.03 0.03 0.02 0.02 0.02 0.02
0.00 0.00 0.00 0.00 0.00 0.00 0.00 0.00 0.00 0.00 0.01 0.03 0.03 0.01 0.00 0.00 0.00 0.00 0.01 0.02 0.03 0.04 0.06 0.10 0.13 0.15 0.14 0.13 0.11 0.09 0.07 0.05 0.04 0.03 0.02 0.02 0.02 0.02 0.01 0.01 0.01 0.00 0.01
0.00 0.00 0.00 0.00 0.00 0.00 0.00 0.00 0.00 0.00 0.01 0.01 0.01 0.01 0.01 0.02 0.03 0.02 0.01 0.02 0.02 0.03 0.04 0.05 0.05 0.05 0.04 0.03 0.02 0.02 0.02 0.01 0.01 0.01 0.01 0.01 0.01 0.01 0.01 0.01 0.01 0.01 0.01
0.00 0.00 0.00 0.00 0.00 0.00 0.00 0.00 0.00 0.00 0.01 0.01 0.00 0.00 0.00 0.01 0.01 0.02 0.02 0.01 0.01 0.02 0.01 0.01 0.01 0.00 0.01 0.01 0.01 0.01 0.01 0.00 0.00 0.00 0.00 0.01 0.02 0.02 0.01 0.01 0.01 0.01 0.01
0.00 0.00 0.00 0.00 0.00 0.00 0.00 0.00 0.01 0.01 0.01 0.01 0.00 0.00 0.00 0.01 0.01 0.01 0.01 0.01 0.01 0.00 0.00 0.00 0.00 0.00 0.00 0.00 0.00 0.00 0.00 0.00 0.00 0.00 0.00 0.01 0.01 0.01 0.01 0.01 0.00 0.00 0.00
0.00 0.00 0.00 0.00 0.00 0.00 0.00 0.00 0.01 0.01 0.02 0.01 0.01 0.01 0.01 0.01 0.01 0.01 0.01 0.00 0.00 0.00 0.00 0.00 0.00 0.00 0.00 0.00 0.00 0.00 0.00 0.00 0.00 0.00 0.01 0.01 0.01 0.01 0.00 0.00 0.00 0.00 0.00
0.00 0.00 0.00 0.00 0.00 0.00 0.00 0.00 0.00 0.01 0.02 0.02 0.02 0.01 0.01 0.01 0.01 0.01 0.01 0.00 0.00 0.00 0.00 0.00 0.00 0.00 0.00 0.00 0.00 0.00 0.00 0.00 0.00 0.01 0.01 0.01 0.01 0.00 0.00 0.00 0.00 0.00 0.00
0.00 0.00 0.00 0.00 0.00 0.00 0.00 0.00 0.00 0.01 0.02 0.02 0.02 0.02 0.01 0.01 0.01 0.01 0.01 0.00 0.00 0.00 0.00 0.00 0.00 0.00 0.00 0.00 0.00 0.00 0.00 0.00 0.00 0.00 0.00 0.00 0.00 0.00 0.00 0.00 0.00 0.00 0.00
0.00 0.00 0.00 0.00 0.00 0.00 0.00 0.00 0.00 0.01 0.02 0.02 0.01 0.01 0.01 0.00 0.00 0.00 0.00 0.00 0.00 0.00 0.00 0.00 0.00 0.00 0.00 0.00 0.00 0.00 0.00 0.00 0.00 0.00 0.00 0.00 0.00 0.00 0.00 0.00 0.00 0.00 0.00

GEFSGL_prec_meanprecacc_054.txt.gz
Total_Precipitation_Accumulation
0.93 1.03 1.06 0.85 0.61 0.49 0.47 0.45 0.44 0.47 0.52 0.60 0.55 0.52 0.57 0.61 0.58 0.65 0.73 0.83 0.91 0.95 0.95 0.97 1.00 1.03 1.09 1.10 1.16 1.18 1.15 1.04 0.80 0.71 0.57 0.47 0.49 0.48 0.49 0.42 0.41 0.38 0.33
0.80 0.79 0.65 0.47 0.37 0.34 0.30 0.25 0.22 0.22 0.22 0.29 0.32 0.32 0.40 0.50 0.51 0.56 0.60 0.61 0.66 0.70 0.71 0.75 0.78 0.81 0.88 0.92 0.94 0.97 1.02 1.05 0.94 0.81 0.67 0.53 0.48 0.51 0.59 0.58 0.55 0.51 0.49
0.44 0.42 0.39 0.32 0.30 0.26 0.21 0.19 0.17 0.16 0.16 0.20 0.23 0.26 0.29 0.38 0.50 0.55 0.57 0.52 0.51 0.49 0.48 0.51 0.56 0.61 0.68 0.73 0.75 0.80 0.88 0.91 0.92 0.83 0.78 0.70 0.59 0.53 0.58 0.59 0.60 0.71 0.69
0.25 0.23 0.22 0.23 0.23 0.23 0.23 0.23 0.18 0.14 0.16 0.15 0.14 0.16 0.24 0.34 0.42 0.50 0.54 0.50 0.46 0.45 0.46 0.44 0.44 0.44 0.47 0.56 0.65 0.77 0.86 0.96 0.98 0.89 0.88 0.85 0.77 0.68 0.68 0.75 0.80 0.85 0.88
0.15 0.15 0.18 0.18 0.18 0.18 0.20 0.20 0.17 0.14 0.12 0.08 0.06 0.08 0.16 0.21 0.26 0.39 0.45 0.44 0.45 0.42 0.42 0.45 0.44 0.40 0.38 0.41 0.43 0.55 0.66 0.82 0.92 0.95 0.95 0.97 0.93 0.86 0.78 0.84 0.93 1.00 1.03
0.03 0.05 0.08 0.11 0.13 0.15 0.15 0.15 0.13 0.11 0.09 0.07 0.05 0.05 0.07 0.08 0.14 0.21 0.30 0.39 0.44 0.46 0.45 0.47 0.45 0.41 0.42 0.40 0.38 0.40 0.46 0.55 0.66 0.73 0.79 0.85 0.91 0.96 1.02 1.02 1.04 1.06 1.12
0.01 0.01 0.02 0.03 0.04 0.05 0.05 0.05 0.05 0.04 0.04 0.03 0.04 0.04 0.04 0.03 0.04 0.07 0.17 0.33 0.45 0.44 0.43 0.54 0.60 0.54 0.52 0.55 0.55 0.47 0.39 0.37 0.46 0.60 0.68 0.71 0.76 0.84 1.01 1.10 1.11 1.09 1.00
0.00 0.00 0.00 0.01 0.01 0.02 0.02 0.02 0.02 0.02 0.02 0.03 0.04 0.06 0.04 0.01 0.02 0.03 0.08 0.22 0.34 0.37 0.37 0.48 0.71 0.72 0.65 0.64 0.68 0.74 0.62 0.44 0.41 0.46 0.59 0.63 0.63 0.76 1.03 1.23 1.17 0.94 0.86
0.00 0.00 0.00 0.00 0.01 0.01 0.01 0.01 0.00 0.01 0.02 0.02 0.03 0.05 0.04 0.03 0.02 0.03 0.06 0.16 0.24 0.28 0.32 0.44 0.58 0.71 0.68 0.67 0.66 0.69 0.67 0.54 0.47 0.47 0.44 0.48 0.56 0.68 0.88 1.11 1.17 1.04 0.88
0.00 0.00 0.00 0.00 0.01 0.01 0.01 0.01 0.01 0.01 0.02 0.02 0.01 0.01 0.01 0.01 0.02 0.03 0.05 0.09 0.13 0.13 0.19 0.32 0.48 0.51 0.49 0.55 0.63 0.71 0.78 0.61 0.50 0.55 0.52 0.54 0.56 0.71 0.95 1.10 1.13 1.02 0.88
0.00 0.00 0.01 0.01 0.01 0.02 0.02 0.02 0.01 0.01 0.02 0.02 0.02 0.02 0.02 0.01 0.02 0.03 0.05 0.06 0.08 0.08 0.12 0.23 0.30 0.33 0.34 0.41 0.52 0.63 0.75 0.61 0.60 0.67 0.65 0.61 0.67 0.73 0.84 0.92 1.01 1.02 0.87
0.00 0.01 0.01 0.01 0.01 0.01 0.03 0.02 0.01 0.01 0.02 0.03 0.05 0.05 0.05 0.04 0.02 0.03 0.05 0.07 0.08 0.08 0.13 0.18 0.22 0.21 0.22 0.26 0.33 0.44 0.55 0.60 0.64 0.71 0.69 0.59 0.59 0.65 0.69 0.72 0.78 0.80 0.74
0.00 0.01 0.00 0.01 0.01 0.01 0.01 0.01 0.01 0.01 0.01 0.02 0.04 0.06 0.06 0.07 0.04 0.02 0.03 0.05 0.06 0.09 0.12 0.16 0.18 0.19 0.22 0.23 0.26 0.34 0.48 0.62 0.74 0.71 0.63 0.53 0.51 0.55 0.56 0.64 0.69 0.70 0.66
0.00 0.00 0.00 0.00 0.01 0.02 0.01 0.00 0.01 0.01 0.01 0.01 0.02 0.04 0.05 0.07 0.04 0.03 0.05 0.07 0.07 0.09 0.11 0.12 0.13 0.18 0.22 0.22 0.27 0.37 0.52 0.70 0.76 0.66 0.57 0.45 0.42 0.53 0.55 0.53 0.53 0.53 0.55
0.00 0.00 0.00 0.00 0.01 0.02 0.01 0.00 0.00 0.00 0.00 0.01 0.02 0.03 0.02 0.03 0.02 0.01 0.03 0.04 0.05 0.05 0.09 0.15 0.18 0.24 0.29 0.35 0.45 0.52 0.54 0.59 0.64 0.55 0.55 0.48 0.43 0.47 0.47 0.41 0.38 0.34 0.34
0.00 0.00 0.00 0.00 0.01 0.01 0.02 0.01 0.00 0.00 0.00 0.00 0.00 0.01 0.02 0.00 0.00 0.01 0.01 0.02 0.02 0.05 0.12 0.20 0.27 0.33 0.38 0.45 0.49 0.51 0.53 0.54 0.56 0.51 0.49 0.45 0.38 0.37 0.36 0.33 0.29 0.27 0.27
0.00 0.00 0.00 0.00 0.00 0.00 0.01 0.03 0.03 0.02 0.01 0.00 0.00 0.00 0.00 0.00 0.00 0.01 0.01 0.02 0.02 0.04 0.10 0.21 0.40 0.44 0.39 0.44 0.46 0.44 0.37 0.33 0.33 0.33 0.32 0.28 0.24 0.24 0.26 0.25 0.22 0.21 0.19
0.00 0.00 0.00 0.00 0.00 0.00 0.00 0.00 0.01 0.03 0.04 0.04 0.02 0.00 0.00 0.00 0.00 0.01 0.01 0.03 0.03 0.03 0.06 0.12 0.25 0.28 0.30 0.33 0.30 0.27 0.20 0.15 0.15 0.15 0.14 0.14 0.14 0.14 0.14 0.14 0.13 0.12 0.12
0.00 0.00 0.00 0.00 0.00 0.00 0.00 0.00 0.00 0.00 0.01 0.03 0.03 0.01 0.00 0.00 0.00 0.00 0.01 0.02 0.03 0.04 0.06 0.10 0.13 0.15 0.15 0.13 0.12 0.10 0.07 0.06 0.06 0.06 0.07 0.09 0.09 0.09 0.06 0.06 0.07 0.08 0.07
0.00 0.00 0.00 0.00 0.00 0.00 0.00 0.00 0.00 0.00 0.01 0.01 0.01 0.01 0.01 0.02 0.03 0.02 0.01 0.02 0.02 0.03 0.04 0.05 0.05 0.05 0.04 0.03 0.03 0.03 0.02 0.03 0.02 0.02 0.03 0.04 0.05 0.04 0.03 0.03 0.03 0.03 0.04
0.00 0.00 0.00 0.00 0.00 0.00 0.00 0.00 0.00 0.00 0.01 0.01 0.00 0.00 0.00 0.01 0.01 0.02 0.02 0.01 0.01 0.02 0.01 0.01 0.01 0.00 0.01 0.01 0.01 0.01 0.01 0.02 0.02 0.01 0.01 0.02 0.03 0.04 0.02 0.01 0.01 0.01 0.01
0.00 0.00 0.00 0.00 0.00 0.00 0.00 0.00 0.01 0.01 0.01 0.01 0.00 0.00 0.00 0.01 0.01 0.01 0.01 0.01 0.01 0.00 0.00 0.00 0.00 0.00 0.00 0.00 0.00 0.00 0.00 0.01 0.01 0.01 0.01 0.01 0.01 0.02 0.02 0.01 0.00 0.00 0.00
0.00 0.00 0.00 0.00 0.00 0.00 0.00 0.00 0.01 0.01 0.02 0.01 0.01 0.01 0.01 0.01 0.01 0.01 0.01 0.00 0.00 0.00 0.00 0.00 0.00 0.00 0.00 0.00 0.00 0.00 0.00 0.00 0.01 0.01 0.01 0.01 0.01 0.01 0.00 0.00 0.00 0.00 0.00
0.00 0.00 0.00 0.00 0.00 0.00 0.00 0.00 0.00 0.01 0.02 0.02 0.02 0.01 0.01 0.01 0.01 0.01 0.01 0.00 0.00 0.00 0.00 0.00 0.00 0.00 0.00 0.00 0.00 0.00 0.00 0.00 0.01 0.01 0.01 0.02 0.01 0.00 0.00 0.00 0.00 0.00 0.00
0.00 0.00 0.00 0.00 0.00 0.00 0.00 0.00 0.00 0.01 0.02 0.02 0.02 0.02 0.01 0.01 0.01 0.01 0.01 0.00 0.00 0.00 0.00 0.00 0.00 0.00 0.00 0.00 0.00 0.00 0.00 0.00 0.00 0.00 0.01 0.01 0.00 0.00 0.00 0.00 0.00 0.00 0.00
0.00 0.00 0.00 0.00 0.00 0.00 0.00 0.00 0.00 0.01 0.02 0.02 0.01 0.01 0.01 0.01 0.00 0.00 0.00 0.00 0.00 0.00 0.00 0.00 0.00 0.00 0.00 0.00 0.00 0.00 0.00 0.00 0.00 0.00 0.00 0.01 0.01 0.00 0.00 0.00 0.00 0.00 0.00

GEFSGL_prec_meanprecacc_060.txt.gz
Total_Precipitation_Accumulation
0.93 1.03 1.06 0.85 0.61 0.49 0.47 0.45 0.44 0.47 0.52 0.60 0.55 0.52 0.58 0.62 0.59 0.66 0.75 0.86 0.94 1.00 1.01 1.03 1.09 1.15 1.22 1.24 1.32 1.34 1.33 1.22 0.93 0.81 0.70 0.59 0.59 0.57 0.58 0.50 0.50 0.49 0.42
0.80 0.79 0.65 0.47 0.37 0.34 0.30 0.25 0.22 0.22 0.22 0.29 0.32 0.32 0.40 0.51 0.52 0.57 0.61 0.63 0.68 0.72 0.75 0.80 0.86 0.92 1.00 1.05 1.09 1.12 1.19 1.23 1.10 0.94 0.79 0.65 0.59 0.60 0.71 0.73 0.68 0.61 0.59
0.44 0.42 0.39 0.32 0.30 0.26 0.21 0.19 0.17 0.16 0.16 0.20 0.23 0.26 0.29 0.39 0.50 0.56 0.58 0.53 0.52 0.50 0.50 0.54 0.62 0.69 0.78 0.84 0.88 0.94 1.04 1.09 1.14 1.00 0.92 0.82 0.68 0.63 0.72 0.73 0.76 0.88 0.83
0.25 0.23 0.22 0.23 0.23 0.23 0.23 0.23 0.18 0.14 0.16 0.15 0.14 0.16 0.24 0.34 0.43 0.51 0.55 0.51 0.48 0.48 0.48 0.47 0.48 0.50 0.54 0.64 0.75 0.91 1.01 1.13 1.18 1.08 1.04 1.00 0.87 0.78 0.82 0.88 0.94 0.99 1.04
0.15 0.15 0.18 0.18 0.18 0.18 0.20 0.20 0.17 0.14 0.12 0.08 0.06 0.08 0.16 0.21 0.26 0.40 0.45 0.45 0.47 0.45 0.46 0.49 0.49 0.44 0.41 0.44 0.46 0.62 0.79 0.98 1.11 1.14 1.13 1.13 1.05 0.95 0.87 0.94 1.04 1.13 1.20
0.03 0.05 0.08 0.11 0.13 0.15 0.15 0.15 0.13 0.11 0.09 0.07 0.05 0.05 0.07 0.08 0.14 0.21 0.30 0.40 0.47 0.50 0.50 0.53 0.50 0.44 0.46 0.43 0.41 0.44 0.52 0.64 0.80 0.90 0.97 1.01 1.04 1.08 1.12 1.15 1.19 1.24 1.30
0.01 0.01 0.02 0.03 0.04 0.05 0.05 0.05 0.05 0.04 0.04 0.03 0.04 0.04 0.04 0.04 0.04 0.07 0.17 0.33 0.47 0.48 0.47 0.60 0.67 0.59 0.57 0.60 0.61 0.52 0.44 0.41 0.52 0.69 0.82 0.86 0.92 0.99 1.15 1.21 1.24 1.25 1.17
0.00 0.00 0.00 0.01 0.01 0.02 0.02 0.02 0.02 0.02 0.02 0.03 0.04 0.07 0.04 0.02 0.02 0.03 0.08 0.23 0.38 0.42 0.42 0.54 0.78 0.82 0.72 0.68 0.72 0.81 0.70 0.52 0.48 0.52 0.67 0.75 0.78 0.91 1.19 1.37 1.32 1.13 1.07
0.00 0.00 0.00 0.00 0.01 0.01 0.01 0.01 0.00 0.01 0.02 0.02 0.03 0.05 0.04 0.03 0.02 0.03 0.06 0.17 0.27 0.32 0.36 0.47 0.63 0.79 0.73 0.68 0.69 0.75 0.77 0.65 0.56 0.55 0.50 0.56 0.66 0.81 1.04 1.27 1.34 1.26 1.14
0.00 0.00 0.00 0.00 0.01 0.01 0.01 0.01 0.01 0.01 0.02 0.02 0.01 0.01 0.01 0.01 0.02 0.03 0.05 0.10 0.15 0.15 0.22 0.38 0.53 0.53 0.50 0.55 0.67 0.78 0.86 0.70 0.59 0.64 0.61 0.62 0.64 0.81 1.10 1.26 1.30 1.23 1.11
0.00 0.00 0.01 0.01 0.01 0.02 0.02 0.02 0.01 0.01 0.02 0.02 0.02 0.02 0.02 0.01 0.02 0.03 0.05 0.07 0.09 0.09 0.14 0.28 0.37 0.34 0.34 0.41 0.53 0.66 0.79 0.65 0.66 0.78 0.79 0.75 0.81 0.86 0.98 1.08 1.20 1.23 1.11
0.00 0.01 0.01 0.01 0.01 0.01 0.03 0.02 0.01 0.01 0.02 0.03 0.05 0.05 0.05 0.04 0.02 0.03 0.05 0.07 0.08 0.09 0.15 0.21 0.25 0.22 0.22 0.26 0.33 0.45 0.56 0.63 0.71 0.82 0.87 0.80 0.77 0.83 0.87 0.90 0.97 1.03 0.98
0.00 0.01 0.00 0.01 0.01 0.01 0.01 0.01 0.01 0.01 0.01 0.02 0.04 0.06 0.06 0.07 0.04 0.02 0.03 0.05 0.06 0.10 0.13 0.17 0.18 0.19 0.22 0.24 0.27 0.35 0.49 0.67 0.84 0.83 0.76 0.70 0.71 0.77 0.76 0.84 0.91 0.95 0.93
0.00 0.00 0.00 0.00 0.01 0.02 0.01 0.00 0.01 0.01 0.01 0.01 0.02 0.04 0.05 0.07 0.04 0.03 0.05 0.07 0.08 0.11 0.13 0.13 0.14 0.19 0.22 0.23 0.29 0.40 0.55 0.74 0.82 0.74 0.69 0.58 0.58 0.70 0.73 0.71 0.73 0.75 0.80
0.00 0.00 0.00 0.00 0.01 0.02 0.01 0.00 0.00 0.00 0.00 0.01 0.02 0.03 0.02 0.03 0.02 0.01 0.03 0.05 0.05 0.06 0.10 0.16 0.21 0.28 0.34 0.40 0.50 0.57 0.58 0.62 0.68 0.61 0.64 0.58 0.54 0.60 0.60 0.57 0.56 0.51 0.54
0.00 0.00 0.00 0.00 0.01 0.01 0.02 0.01 0.00 0.00 0.00 0.00 0.00 0.01 0.02 0.00 0.00 0.01 0.01 0.02 0.02 0.05 0.12 0.21 0.29 0.37 0.43 0.50 0.55 0.56 0.55 0.56 0.59 0.56 0.54 0.54 0.48 0.47 0.48 0.46 0.46 0.46 0.47
0.00 0.00 0.00 0.00 0.00 0.00 0.01 0.03 0.03 0.02 0.01 0.00 0.00 0.00 0.00 0.00 0.00 0.01 0.01 0.02 0.02 0.04 0.10 0.22 0.42 0.47 0.43 0.47 0.51 0.49 0.42 0.35 0.35 0.37 0.36 0.34 0.33 0.34 0.36 0.36 0.36 0.37 0.38
0.00 0.00 0.00 0.00 0.00 0.00 0.00 0.00 0.01 0.03 0.04 0.04 0.02 0.00 0.00 0.00 0.00 0.01 0.01 0.03 0.03 0.03 0.06 0.13 0.26 0.30 0.32 0.36 0.34 0.31 0.24 0.18 0.18 0.18 0.17 0.18 0.19 0.21 0.23 0.26 0.25 0.24 0.26
0.00 0.00 0.00 0.00 0.00 0.00 0.00 0.00 0.00 0.00 0.01 0.03 0.03 0.01 0.00 0.00 0.00 0.00 0.01 0.02 0.03 0.04 0.06 0.10 0.14 0.16 0.16 0.15 0.14 0.13 0.11 0.10 0.09 0.09 0.11 0.13 0.13 0.14 0.13 0.13 0.16 0.19 0.18
0.00 0.00 0.00 0.00 0.00 0.00 0.00 0.00 0.00 0.00 0.01 0.01 0.01 0.01 0.01 0.02 0.03 0.02 0.01 0.02 0.02 0.03 0.04 0.05 0.05 0.05 0.04 0.04 0.04 0.05 0.06 0.07 0.07 0.06 0.06 0.08 0.09 0.09 0.09 0.08 0.07 0.08 0.10
0.00 0.00 0.00 0.00 0.00 0.00 0.00 0.00 0.00 0.00 0.01 0.01 0.00 0.00 0.00 0.01 0.02 0.02 0.02 0.02 0.02 0.02 0.02 0.01 0.01 0.01 0.01 0.01 0.02 0.02 0.03 0.06 0.07 0.06 0.05 0.05 0.06 0.07 0.07 0.06 0.05 0.05 0.06
0.00 0.00 0.00 0.00 0.00 0.00 0.00 0.00 0.01 0.01 0.01 0.01 0.01 0.00 0.00 0.01 0.01 0.02 0.02 0.02 0.01 0.01 0.01 0.01 0.01 0.01 0.01 0.01 0.01 0.01 0.02 0.04 0.07 0.06 0.05 0.04 0.04 0.05 0.04 0.04 0.04 0.05 0.04
0.00 0.00 0.00 0.00 0.00 0.00 0.00 0.00 0.01 0.01 0.02 0.01 0.01 0.01 0.01 0.01 0.01 0.02 0.02 0.01 0.01 0.01 0.01 0.01 0.01 0.02 0.01 0.01 0.01 0.01 0.01 0.03 0.06 0.08 0.08 0.07 0.04 0.03 0.02 0.02 0.02 0.03 0.03
0.00 0.00 0.00 0.00 0.00 0.00 0.00 0.00 0.00 0.01 0.02 0.02 0.02 0.01 0.01 0.01 0.01 0.01 0.02 0.02 0.02 0.02 0.02 0.02 0.02 0.03 0.03 0.03 0.02 0.01 0.01 0.02 0.05 0.08 0.10 0.10 0.07 0.04 0.03 0.02 0.01 0.01 0.02
0.00 0.00 0.00 0.00 0.00 0.00 0.00 0.00 0.00 0.01 0.02 0.02 0.02 0.02 0.01 0.01 0.01 0.01 0.01 0.01 0.02 0.02 0.03 0.03 0.03 0.04 0.04 0.04 0.04 0.03 0.02 0.01 0.02 0.05 0.08 0.10 0.10 0.08 0.06 0.04 0.02 0.01 0.01
0.00 0.00 0.00 0.00 0.00 0.00 0.00 0.00 0.00 0.01 0.02 0.02 0.01 0.01 0.01 0.01 0.01 0.01 0.01 0.01 0.02 0.02 0.03 0.03 0.04 0.04 0.04 0.05 0.06 0.06 0.04 0.02 0.01 0.02 0.06 0.09 0.11 0.10 0.08 0.06 0.04 0.03 0.02

GEFSGL_prec_meanprecacc_066.txt.gz
Total_Precipitation_Accumulation
0.93 1.03 1.06 0.85 0.61 0.49 0.47 0.45 0.44 0.47 0.52 0.60 0.55 0.52 0.58 0.62 0.59 0.66 0.75 0.86 0.95 1.00 1.01 1.04 1.10 1.16 1.23 1.26 1.34 1.38 1.37 1.26 0.95 0.83 0.72 0.62 0.64 0.64 0.67 0.60 0.63 0.65 0.58
0.80 0.79 0.65 0.47 0.37 0.34 0.30 0.25 0.22 0.22 0.22 0.29 0.32 0.32 0.40 0.51 0.52 0.57 0.61 0.63 0.68 0.72 0.75 0.81 0.87 0.93 1.01 1.06 1.10 1.14 1.23 1.27 1.14 0.97 0.82 0.68 0.62 0.64 0.78 0.82 0.81 0.73 0.70
0.44 0.42 0.39 0.32 0.30 0.26 0.21 0.19 0.17 0.16 0.16 0.20 0.23 0.26 0.29 0.39 0.50 0.56 0.58 0.54 0.53 0.51 0.50 0.54 0.63 0.70 0.79 0.86 0.89 0.96 1.06 1.13 1.18 1.04 0.94 0.86 0.72 0.67 0.77 0.79 0.87 1.02 0.96
0.25 0.23 0.22 0.23 0.23 0.23 0.23 0.23 0.18 0.14 0.16 0.15 0.14 0.16 0.24 0.34 0.43 0.51 0.55 0.52 0.49 0.48 0.48 0.47 0.50 0.51 0.55 0.65 0.77 0.93 1.04 1.16 1.21 1.12 1.07 1.03 0.92 0.83 0.87 0.93 1.00 1.08 1.15
0.15 0.15 0.18 0.18 0.18 0.18 0.20 0.20 0.17 0.14 0.12 0.08 0.06 0.08 0.16 0.21 0.26 0.40 0.45 0.45 0.48 0.45 0.46 0.49 0.51 0.47 0.44 0.46 0.48 0.64 0.81 1.00 1.14 1.18 1.17 1.18 1.10 1.02 0.93 0.98 1.09 1.20 1.30
0.03 0.05 0.08 0.11 0.13 0.15 0.15 0.15 0.13 0.11 0.09 0.07 0.05 0.05 0.07 0.08 0.14 0.21 0.30 0.40 0.47 0.50 0.50 0.53 0.51 0.46 0.48 0.45 0.44 0.46 0.54 0.65 0.82 0.92 0.99 1.04 1.08 1.14 1.19 1.22 1.24 1.30 1.36
0.01 0.01 0.02 0.03 0.04 0.05 0.05 0.05 0.05 0.04 0.04 0.03 0.04 0.04 0.04 0.04 0.04 0.07 0.17 0.33 0.47 0.48 0.47 0.61 0.67 0.60 0.59 0.61 0.62 0.54 0.46 0.43 0.54 0.71 0.83 0.87 0.94 1.03 1.21 1.28 1.31 1.30 1.21
0.00 0.00 0.00 0.01 0.01 0.02 0.02 0.02 0.02 0.02 0.02 0.03 0.04 0.07 0.04 0.02 0.02 0.03 0.08 0.23 0.38 0.42 0.42 0.54 0.79 0.83 0.73 0.69 0.72 0.81 0.71 0.54 0.51 0.54 0.68 0.77 0.80 0.95 1.23 1.43 1.39 1.20 1.14
0.00 0.00 0.00 0.00 0.01 0.01 0.01 0.01 0.00 0.01 0.02 0.02 0.03 0.05 0.04 0.03 0.02 0.03 0.06 0.17 0.28 0.32 0.36 0.48 0.64 0.79 0.73 0.69 0.69 0.75 0.78 0.67 0.59 0.58 0.52 0.59 0.69 0.85 1.08 1.31 1.38 1.31 1.19
0.00 0.00 0.00 0.00 0.01 0.01 0.01 0.01 0.01 0.01 0.02 0.02 0.01 0.01 0.01 0.01 0.02 0.03 0.05 0.10 0.15 0.15 0.22 0.38 0.53 0.54 0.50 0.55 0.67 0.78 0.87 0.71 0.60 0.66 0.63 0.65 0.67 0.84 1.13 1.30 1.35 1.27 1.15
0.00 0.00 0.01 0.01 0.01 0.02 0.02 0.02 0.01 0.01 0.02 0.02 0.02 0.02 0.02 0.01 0.02 0.03 0.05 0.07 0.09 0.09 0.14 0.28 0.37 0.35 0.34 0.41 0.53 0.66 0.80 0.65 0.67 0.79 0.81 0.78 0.84 0.90 1.01 1.12 1.25 1.29 1.15
0.00 0.01 0.01 0.01 0.01 0.01 0.03 0.02 0.01 0.01 0.02 0.03 0.05 0.05 0.05 0.04 0.02 0.03 0.05 0.07 0.08 0.09 0.15 0.21 0.25 0.22 0.22 0.26 0.33 0.45 0.56 0.64 0.72 0.83 0.89 0.84 0.79 0.85 0.90 0.93 1.02 1.09 1.03
0.00 0.01 0.00 0.01 0.01 0.01 0.01 0.01 0.01 0.01 0.01 0.02 0.04 0.06 0.06 0.07 0.04 0.02 0.03 0.05 0.06 0.10 0.13 0.17 0.18 0.19 0.22 0.24 0.27 0.35 0.49 0.68 0.84 0.84 0.77 0.73 0.74 0.80 0.79 0.88 0.97 1.01 1.00
0.00 0.00 0.00 0.00 0.01 0.02 0.01 0.00 0.01 0.01 0.01 0.01 0.02 0.04 0.05 0.07 0.04 0.03 0.05 0.07 0.08 0.11 0.13 0.13 0.14 0.19 0.22 0.23 0.29 0.40 0.55 0.75 0.82 0.74 0.70 0.60 0.61 0.74 0.77 0.76 0.80 0.84 0.89
0.00 0.00 0.00 0.00 0.01 0.02 0.01 0.00 0.00 0.00 0.00 0.01 0.02 0.03 0.02 0.03 0.02 0.01 0.03 0.05 0.05 0.06 0.10 0.16 0.21 0.28 0.34 0.40 0.50 0.57 0.58 0.62 0.68 0.61 0.65 0.59 0.56 0.63 0.65 0.63 0.63 0.60 0.61
0.00 0.00 0.00 0.00 0.01 0.01 0.02 0.01 0.00 0.00 0.00 0.00 0.00 0.01 0.02 0.00 0.00 0.01 0.01 0.02 0.02 0.05 0.12 0.21 0.29 0.37 0.43 0.50 0.55 0.56 0.55 0.56 0.59 0.56 0.55 0.55 0.49 0.49 0.50 0.50 0.51 0.52 0.54
0.00 0.00 0.00 0.00 0.00 0.00 0.01 0.03 0.03 0.02 0.01 0.00 0.00 0.00 0.00 0.00 0.00 0.01 0.01 0.02 0.02 0.04 0.10 0.22 0.42 0.47 0.43 0.47 0.51 0.49 0.42 0.36 0.36 0.37 0.36 0.35 0.34 0.35 0.38 0.38 0.39 0.43 0.45
0.00 0.00 0.00 0.00 0.00 0.00 0.00 0.00 0.01 0.03 0.04 0.04 0.02 0.00 0.00 0.00 0.00 0.01 0.01 0.03 0.03 0.03 0.06 0.13 0.26 0.30 0.32 0.36 0.34 0.31 0.24 0.19 0.18 0.18 0.18 0.19 0.21 0.23 0.24 0.28 0.28 0.27 0.32
0.00 0.00 0.00 0.00 0.00 0.00 0.00 0.00 0.00 0.00 0.01 0.03 0.03 0.01 0.00 0.00 0.01 0.00 0.01 0.02 0.03 0.05 0.07 0.11 0.14 0.16 0.16 0.15 0.14 0.13 0.11 0.11 0.10 0.09 0.11 0.14 0.15 0.15 0.15 0.15 0.19 0.22 0.21
0.00 0.00 0.00 0.00 0.00 0.00 0.00 0.00 0.00 0.00 0.01 0.01 0.01 0.01 0.01 0.02 0.03 0.02 0.02 0.02 0.03 0.04 0.05 0.05 0.06 0.06 0.05 0.05 0.05 0.06 0.06 0.08 0.08 0.07 0.07 0.09 0.11 0.11 0.10 0.09 0.09 0.10 0.13
0.00 0.00 0.00 0.00 0.00 0.00 0.00 0.00 0.00 0.00 0.01 0.01 0.00 0.00 0.00 0.01 0.02 0.03 0.03 0.02 0.02 0.03 0.03 0.02 0.02 0.02 0.03 0.03 0.04 0.04 0.04 0.07 0.09 0.08 0.07 0.07 0.09 0.09 0.09 0.09 0.08 0.07 0.08
0.00 0.00 0.00 0.00 0.00 0.00 0.00 0.00 0.01 0.01 0.01 0.01 0.01 0.00 0.00 0.01 0.01 0.02 0.02 0.02 0.02 0.02 0.02 0.02 0.03 0.03 0.04 0.04 0.04 0.04 0.05 0.07 0.10 0.10 0.09 0.08 0.08 0.08 0.07 0.07 0.07 0.08 0.08
0.00 0.00 0.00 0.00 0.00 0.00 0.00 0.00 0.01 0.01 0.02 0.01 0.01 0.01 0.01 0.01 0.01 0.02 0.02 0.02 0.02 0.02 0.03 0.03 0.04 0.04 0.05 0.05 0.06 0.06 0.07 0.08 0.11 0.14 0.14 0.12 0.10 0.08 0.07 0.07 0.06 0.06 0.06
0.00 0.00 0.00 0.00 0.00 0.00 0.00 0.00 0.00 0.01 0.02 0.02 0.02 0.01 0.01 0.01 0.01 0.01 0.02 0.02 0.02 0.03 0.03 0.04 0.05 0.05 0.06 0.07 0.07 0.08 0.09 0.10 0.12 0.14 0.17 0.18 0.14 0.11 0.09 0.08 0.07 0.06 0.06
0.00 0.00 0.00 0.00 0.00 0.00 0.00 0.00 0.00 0.01 0.02 0.02 0.02 0.02 0.01 0.01 0.01 0.01 0.01 0.02 0.02 0.03 0.03 0.04 0.04 0.05 0.05 0.06 0.08 0.09 0.12 0.11 0.10 0.12 0.15 0.17 0.17 0.16 0.14 0.12 0.10 0.09 0.08
0.00 0.00 0.00 0.00 0.00 0.00 0.00 0.00 0.00 0.01 0.02 0.02 0.01 0.01 0.01 0.01 0.01 0.01 0.01 0.01 0.02 0.02 0.03 0.03 0.04 0.04 0.05 0.06 0.08 0.11 0.12 0.10 0.09 0.10 0.12 0.16 0.18 0.18 0.18 0.17 0.15 0.13 0.12

GEFSGL_prec_meanprecacc_072.txt.gz
Total_Precipitation_Accumulation
0.93 1.03 1.06 0.85 0.61 0.49 0.47 0.45 0.44 0.47 0.52 0.60 0.55 0.52 0.58 0.62 0.59 0.66 0.75 0.86 0.95 1.00 1.02 1.04 1.10 1.17 1.24 1.26 1.35 1.38 1.37 1.27 0.96 0.83 0.73 0.63 0.66 0.66 0.69 0.62 0.66 0.69 0.62
0.80 0.79 0.65 0.47 0.37 0.34 0.30 0.25 0.22 0.22 0.22 0.29 0.32 0.32 0.40 0.51 0.52 0.57 0.61 0.63 0.68 0.73 0.76 0.81 0.87 0.94 1.01 1.07 1.11 1.15 1.23 1.28 1.15 0.97 0.83 0.69 0.63 0.65 0.80 0.84 0.83 0.77 0.74
0.44 0.42 0.39 0.32 0.30 0.26 0.21 0.19 0.17 0.16 0.16 0.20 0.23 0.26 0.29 0.39 0.50 0.56 0.58 0.54 0.53 0.51 0.51 0.55 0.63 0.71 0.79 0.87 0.90 0.97 1.07 1.14 1.19 1.05 0.96 0.87 0.73 0.69 0.79 0.81 0.89 1.05 0.99
0.25 0.23 0.22 0.23 0.23 0.23 0.23 0.23 0.18 0.14 0.16 0.15 0.14 0.16 0.24 0.34 0.43 0.51 0.55 0.52 0.49 0.48 0.48 0.48 0.51 0.52 0.55 0.66 0.77 0.93 1.04 1.17 1.22 1.13 1.08 1.05 0.93 0.84 0.89 0.95 1.02 1.11 1.19
0.15 0.15 0.18 0.18 0.18 0.18 0.20 0.20 0.17 0.14 0.12 0.08 0.06 0.08 0.16 0.21 0.26 0.40 0.45 0.45 0.48 0.45 0.46 0.50 0.51 0.48 0.45 0.47 0.49 0.65 0.82 1.02 1.15 1.19 1.18 1.20 1.12 1.03 0.94 1.00 1.11 1.23 1.34
0.03 0.05 0.08 0.11 0.13 0.15 0.15 0.15 0.13 0.11 0.09 0.07 0.05 0.05 0.07 0.08 0.14 0.21 0.30 0.40 0.47 0.50 0.50 0.54 0.51 0.46 0.49 0.46 0.45 0.48 0.56 0.67 0.83 0.93 1.00 1.06 1.10 1.17 1.23 1.25 1.27 1.32 1.39
0.01 0.01 0.02 0.03 0.04 0.05 0.05 0.05 0.05 0.04 0.04 0.03 0.04 0.04 0.04 0.04 0.04 0.07 0.17 0.33 0.47 0.48 0.47 0.61 0.67 0.60 0.59 0.61 0.62 0.55 0.47 0.44 0.55 0.72 0.83 0.88 0.95 1.04 1.24 1.31 1.33 1.33 1.23
0.00 0.00 0.00 0.01 0.01 0.02 0.02 0.02 0.02 0.02 0.02 0.03 0.04 0.07 0.04 0.02 0.02 0.03 0.08 0.23 0.38 0.42 0.42 0.54 0.79 0.83 0.73 0.69 0.73 0.81 0.71 0.55 0.51 0.55 0.68 0.77 0.81 0.95 1.25 1.46 1.43 1.23 1.15
0.00 0.00 0.00 0.00 0.01 0.01 0.01 0.01 0.00 0.01 0.02 0.02 0.03 0.05 0.04 0.03 0.02 0.03 0.06 0.17 0.28 0.32 0.36 0.48 0.64 0.79 0.73 0.69 0.69 0.75 0.78 0.67 0.60 0.59 0.54 0.60 0.70 0.86 1.11 1.34 1.41 1.34 1.20
0.00 0.00 0.00 0.00 0.01 0.01 0.01 0.01 0.01 0.01 0.02 0.02 0.01 0.01 0.01 0.01 0.02 0.03 0.05 0.10 0.15 0.15 0.22 0.38 0.53 0.54 0.50 0.55 0.67 0.78 0.87 0.71 0.60 0.67 0.65 0.66 0.68 0.85 1.16 1.33 1.38 1.31 1.18
0.00 0.00 0.01 0.01 0.01 0.02 0.02 0.02 0.01 0.01 0.02 0.02 0.02 0.02 0.02 0.01 0.02 0.03 0.05 0.07 0.09 0.09 0.14 0.28 0.37 0.35 0.34 0.41 0.53 0.67 0.80 0.65 0.67 0.80 0.83 0.80 0.85 0.90 1.02 1.14 1.28 1.33 1.19
0.00 0.01 0.01 0.01 0.01 0.01 0.03 0.02 0.01 0.01 0.02 0.03 0.05 0.05 0.05 0.04 0.02 0.03 0.05 0.07 0.08 0.09 0.15 0.21 0.25 0.22 0.22 0.26 0.33 0.45 0.57 0.64 0.72 0.84 0.90 0.85 0.80 0.86 0.91 0.95 1.04 1.12 1.07
0.00 0.01 0.00 0.01 0.01 0.01 0.01 0.01 0.01 0.01 0.01 0.02 0.04 0.06 0.06 0.07 0.04 0.02 0.03 0.05 0.06 0.10 0.13 0.17 0.18 0.19 0.22 0.24 0.27 0.35 0.49 0.68 0.85 0.84 0.77 0.74 0.75 0.81 0.81 0.90 0.99 1.03 1.03
0.00 0.00 0.00 0.00 0.01 0.02 0.01 0.00 0.01 0.01 0.01 0.01 0.02 0.04 0.05 0.07 0.04 0.03 0.05 0.07 0.08 0.11 0.13 0.13 0.14 0.19 0.22 0.23 0.29 0.40 0.55 0.75 0.83 0.75 0.70 0.60 0.62 0.75 0.78 0.78 0.82 0.86 0.91
0.00 0.00 0.00 0.00 0.01 0.02 0.01 0.00 0.00 0.00 0.00 0.01 0.02 0.03 0.02 0.03 0.02 0.01 0.03 0.05 0.05 0.06 0.10 0.16 0.21 0.28 0.34 0.40 0.50 0.57 0.58 0.62 0.68 0.61 0.65 0.59 0.56 0.63 0.66 0.64 0.65 0.62 0.63
0.00 0.00 0.00 0.00 0.01 0.01 0.02 0.01 0.00 0.00 0.00 0.00 0.00 0.01 0.02 0.00 0.00 0.01 0.01 0.02 0.02 0.05 0.12 0.21 0.29 0.37 0.43 0.50 0.55 0.56 0.55 0.56 0.59 0.56 0.55 0.55 0.50 0.50 0.51 0.52 0.53 0.54 0.57
0.00 0.00 0.00 0.00 0.00 0.00 0.01 0.03 0.03 0.02 0.01 0.00 0.00 0.00 0.00 0.00 0.00 0.01 0.01 0.02 0.02 0.04 0.10 0.22 0.42 0.47 0.43 0.48 0.51 0.49 0.42 0.36 0.36 0.37 0.36 0.35 0.34 0.35 0.39 0.40 0.40 0.45 0.48
0.00 0.00 0.00 0.00 0.00 0.00 0.00 0.00 0.01 0.03 0.04 0.04 0.02 0.00 0.00 0.00 0.00 0.01 0.01 0.03 0.03 0.04 0.07 0.14 0.27 0.30 0.32 0.36 0.34 0.31 0.25 0.19 0.18 0.18 0.18 0.19 0.21 0.23 0.26 0.29 0.29 0.28 0.33
0.00 0.00 0.00 0.00 0.00 0.00 0.00 0.00 0.00 0.00 0.01 0.03 0.03 0.01 0.00 0.00 0.01 0.01 0.01 0.02 0.03 0.05 0.07 0.12 0.15 0.17 0.17 0.16 0.15 0.13 0.12 0.11 0.10 0.09 0.11 0.14 0.15 0.16 0.16 0.17 0.20 0.23 0.23
0.00 0.00 0.00 0.00 0.00 0.00 0.00 0.00 0.00 0.00 0.01 0.01 0.01 0.01 0.01 0.02 0.03 0.02 0.02 0.02 0.03 0.04 0.05 0.06 0.06 0.06 0.05 0.05 0.05 0.06 0.07 0.08 0.08 0.07 0.07 0.09 0.11 0.12 0.11 0.11 0.11 0.13 0.15
0.00 0.00 0.00 0.00 0.00 0.00 0.00 0.00 0.00 0.00 0.01 0.01 0.00 0.00 0.00 0.01 0.02 0.03 0.03 0.02 0.03 0.03 0.03 0.03 0.03 0.02 0.03 0.03 0.04 0.04 0.05 0.08 0.09 0.08 0.08 0.08 0.09 0.10 0.10 0.10 0.09 0.09 0.11
0.00 0.00 0.00 0.00 0.00 0.00 0.00 0.00 0.01 0.01 0.01 0.01 0.01 0.00 0.00 0.01 0.01 0.02 0.02 0.02 0.02 0.02 0.02 0.03 0.03 0.03 0.04 0.04 0.04 0.05 0.06 0.08 0.11 0.11 0.10 0.09 0.09 0.09 0.08 0.08 0.08 0.09 0.09
0.00 0.00 0.00 0.00 0.00 0.00 0.00 0.00 0.01 0.01 0.02 0.01 0.01 0.01 0.01 0.01 0.01 0.02 0.02 0.02 0.02 0.02 0.03 0.03 0.04 0.05 0.05 0.06 0.06 0.07 0.08 0.09 0.11 0.14 0.15 0.13 0.10 0.09 0.08 0.08 0.07 0.07 0.08
0.00 0.00 0.00 0.00 0.00 0.00 0.00 0.00 0.00 0.01 0.02 0.02 0.02 0.01 0.01 0.01 0.01 0.01 0.02 0.02 0.02 0.03 0.03 0.04 0.05 0.05 0.06 0.07 0.08 0.08 0.10 0.11 0.12 0.14 0.17 0.18 0.15 0.11 0.10 0.09 0.08 0.08 0.09
0.00 0.00 0.00 0.00 0.00 0.00 0.00 0.00 0.00 0.01 0.02 0.02 0.02 0.02 0.01 0.01 0.01 0.01 0.01 0.02 0.02 0.03 0.03 0.04 0.04 0.05 0.05 0.06 0.08 0.09 0.12 0.12 0.11 0.12 0.15 0.17 0.17 0.16 0.14 0.12 0.11 0.10 0.10
0.00 0.00 0.00 0.00 0.00 0.00 0.00 0.00 0.00 0.01 0.02 0.02 0.01 0.01 0.01 0.01 0.01 0.01 0.01 0.01 0.02 0.02 0.03 0.03 0.04 0.04 0.05 0.06 0.08 0.11 0.12 0.10 0.09 0.10 0.13 0.16 0.18 0.18 0.18 0.18 0.16 0.15 0.14

GEFSGL_prec_meanprecacc_078.txt.gz
Total_Precipitation_Accumulation
0.93 1.03 1.06 0.85 0.61 0.49 0.47 0.45 0.44 0.47 0.52 0.60 0.55 0.52 0.58 0.62 0.59 0.66 0.75 0.86 0.95 1.00 1.02 1.04 1.11 1.17 1.25 1.28 1.36 1.40 1.39 1.28 0.97 0.85 0.74 0.64 0.67 0.68 0.70 0.63 0.66 0.70 0.63
0.80 0.79 0.65 0.47 0.37 0.34 0.30 0.25 0.22 0.22 0.22 0.29 0.32 0.32 0.40 0.51 0.52 0.57 0.61 0.63 0.68 0.73 0.76 0.82 0.88 0.94 1.02 1.08 1.13 1.17 1.25 1.30 1.17 1.00 0.85 0.72 0.65 0.67 0.81 0.86 0.84 0.77 0.74
0.44 0.42 0.39 0.32 0.30 0.26 0.21 0.19 0.17 0.16 0.16 0.20 0.23 0.26 0.29 0.39 0.50 0.56 0.58 0.54 0.53 0.51 0.51 0.55 0.64 0.71 0.81 0.88 0.92 0.98 1.08 1.15 1.21 1.07 0.97 0.89 0.75 0.71 0.81 0.83 0.90 1.06 0.99
0.25 0.23 0.22 0.23 0.23 0.23 0.23 0.23 0.18 0.14 0.16 0.15 0.14 0.16 0.24 0.34 0.43 0.51 0.55 0.52 0.49 0.48 0.48 0.49 0.52 0.53 0.57 0.67 0.79 0.95 1.06 1.18 1.23 1.14 1.10 1.07 0.94 0.86 0.91 0.97 1.05 1.13 1.20
0.15 0.15 0.18 0.18 0.18 0.18 0.20 0.20 0.17 0.14 0.12 0.08 0.06 0.08 0.16 0.21 0.26 0.40 0.45 0.45 0.48 0.45 0.46 0.50 0.52 0.48 0.46 0.49 0.50 0.66 0.83 1.03 1.16 1.20 1.19 1.21 1.14 1.05 0.97 1.02 1.13 1.26 1.36
0.03 0.05 0.08 0.11 0.13 0.15 0.15 0.15 0.13 0.11 0.09 0.07 0.05 0.05 0.07 0.08 0.14 0.21 0.30 0.40 0.47 0.50 0.51 0.54 0.51 0.46 0.49 0.47 0.46 0.48 0.56 0.67 0.84 0.95 1.02 1.07 1.12 1.18 1.25 1.27 1.29 1.35 1.43
0.01 0.01 0.02 0.03 0.04 0.05 0.05 0.05 0.05 0.04 0.04 0.03 0.04 0.04 0.04 0.04 0.04 0.07 0.17 0.33 0.47 0.48 0.47 0.61 0.67 0.60 0.59 0.62 0.63 0.56 0.48 0.45 0.56 0.73 0.85 0.89 0.96 1.06 1.26 1.33 1.35 1.35 1.26
0.00 0.00 0.00 0.01 0.01 0.02 0.02 0.02 0.02 0.02 0.02 0.03 0.04 0.07 0.04 0.02 0.02 0.03 0.08 0.23 0.38 0.42 0.42 0.54 0.79 0.83 0.73 0.69 0.73 0.82 0.72 0.55 0.51 0.55 0.69 0.78 0.81 0.96 1.27 1.48 1.45 1.26 1.18
0.00 0.00 0.00 0.00 0.01 0.01 0.01 0.01 0.00 0.01 0.02 0.02 0.03 0.05 0.04 0.03 0.02 0.03 0.06 0.17 0.28 0.32 0.36 0.48 0.64 0.79 0.73 0.69 0.69 0.76 0.79 0.68 0.60 0.59 0.54 0.60 0.70 0.87 1.12 1.36 1.44 1.37 1.23
0.00 0.00 0.00 0.00 0.01 0.01 0.01 0.01 0.01 0.01 0.02 0.02 0.01 0.01 0.01 0.01 0.02 0.03 0.05 0.10 0.15 0.15 0.22 0.38 0.53 0.54 0.50 0.55 0.67 0.78 0.87 0.71 0.60 0.67 0.66 0.67 0.68 0.86 1.17 1.35 1.40 1.34 1.21
0.00 0.00 0.01 0.01 0.01 0.02 0.02 0.02 0.01 0.01 0.02 0.02 0.02 0.02 0.02 0.01 0.02 0.03 0.05 0.07 0.09 0.09 0.15 0.28 0.37 0.35 0.34 0.41 0.53 0.67 0.80 0.66 0.67 0.81 0.84 0.81 0.86 0.91 1.03 1.15 1.30 1.36 1.23
0.00 0.01 0.01 0.01 0.01 0.01 0.03 0.02 0.01 0.01 0.02 0.03 0.05 0.05 0.05 0.04 0.02 0.03 0.05 0.07 0.08 0.09 0.15 0.22 0.25 0.22 0.22 0.26 0.33 0.45 0.57 0.64 0.72 0.84 0.91 0.87 0.82 0.87 0.92 0.95 1.05 1.14 1.09
0.00 0.01 0.00 0.01 0.01 0.01 0.01 0.01 0.01 0.01 0.01 0.02 0.04 0.06 0.06 0.07 0.04 0.02 0.03 0.05 0.06 0.10 0.13 0.17 0.18 0.19 0.22 0.24 0.27 0.35 0.49 0.68 0.85 0.85 0.78 0.75 0.77 0.82 0.81 0.91 0.99 1.04 1.04
0.00 0.00 0.00 0.00 0.01 0.02 0.01 0.00 0.01 0.01 0.01 0.01 0.02 0.04 0.05 0.07 0.04 0.03 0.05 0.07 0.08 0.11 0.13 0.13 0.14 0.19 0.22 0.23 0.29 0.40 0.55 0.75 0.83 0.75 0.70 0.61 0.62 0.77 0.80 0.79 0.84 0.87 0.92
0.00 0.00 0.00 0.00 0.01 0.02 0.01 0.00 0.00 0.00 0.00 0.01 0.02 0.03 0.02 0.03 0.02 0.01 0.03 0.05 0.05 0.06 0.10 0.17 0.21 0.28 0.34 0.40 0.50 0.57 0.58 0.62 0.68 0.61 0.65 0.60 0.56 0.63 0.67 0.66 0.67 0.64 0.65
0.00 0.00 0.00 0.00 0.01 0.01 0.02 0.01 0.00 0.00 0.00 0.00 0.00 0.01 0.02 0.00 0.00 0.01 0.01 0.02 0.02 0.05 0.12 0.21 0.30 0.37 0.43 0.50 0.55 0.56 0.55 0.56 0.60 0.57 0.56 0.55 0.50 0.50 0.52 0.53 0.54 0.56 0.59
0.00 0.00 0.00 0.00 0.00 0.00 0.01 0.03 0.03 0.02 0.01 0.00 0.00 0.00 0.00 0.00 0.00 0.01 0.01 0.02 0.02 0.04 0.10 0.23 0.42 0.47 0.43 0.48 0.51 0.50 0.42 0.36 0.36 0.37 0.37 0.36 0.35 0.36 0.39 0.41 0.41 0.46 0.49
0.00 0.00 0.00 0.00 0.00 0.00 0.00 0.00 0.01 0.03 0.04 0.04 0.02 0.00 0.00 0.00 0.00 0.01 0.01 0.03 0.03 0.04 0.07 0.14 0.27 0.31 0.33 0.37 0.35 0.32 0.25 0.19 0.19 0.19 0.18 0.20 0.21 0.24 0.26 0.30 0.30 0.29 0.35
0.00 0.00 0.00 0.00 0.00 0.00 0.00 0.00 0.00 0.00 0.01 0.03 0.03 0.01 0.00 0.00 0.01 0.01 0.01 0.02 0.03 0.05 0.07 0.12 0.15 0.17 0.17 0.16 0.15 0.14 0.12 0.12 0.11 0.10 0.12 0.14 0.15 0.16 0.16 0.17 0.21 0.24 0.24
0.00 0.00 0.00 0.00 0.00 0.00 0.00 0.00 0.00 0.00 0.01 0.01 0.01 0.01 0.01 0.02 0.03 0.02 0.02 0.02 0.03 0.04 0.05 0.06 0.07 0.07 0.06 0.05 0.05 0.06 0.07 0.09 0.08 0.07 0.07 0.09 0.11 0.12 0.11 0.11 0.12 0.13 0.16
0.00 0.00 0.00 0.00 0.00 0.00 0.00 0.00 0.00 0.00 0.01 0.01 0.00 0.00 0.00 0.01 0.02 0.03 0.03 0.02 0.03 0.03 0.03 0.03 0.03 0.03 0.03 0.03 0.04 0.04 0.05 0.08 0.09 0.08 0.08 0.08 0.10 0.10 0.10 0.10 0.09 0.09 0.11
0.00 0.00 0.00 0.00 0.00 0.00 0.00 0.00 0.01 0.01 0.01 0.01 0.01 0.00 0.00 0.01 0.01 0.02 0.02 0.02 0.02 0.02 0.02 0.03 0.03 0.03 0.04 0.04 0.04 0.05 0.06 0.08 0.11 0.11 0.10 0.09 0.09 0.09 0.08 0.08 0.09 0.09 0.10
0.00 0.00 0.00 0.00 0.00 0.00 0.00 0.00 0.01 0.01 0.02 0.01 0.01 0.01 0.01 0.01 0.01 0.02 0.02 0.02 0.02 0.02 0.03 0.03 0.04 0.05 0.05 0.06 0.06 0.07 0.08 0.09 0.11 0.14 0.15 0.13 0.10 0.09 0.08 0.08 0.07 0.08 0.08
0.00 0.00 0.00 0.00 0.00 0.00 0.00 0.00 0.00 0.01 0.02 0.02 0.02 0.01 0.01 0.01 0.01 0.01 0.02 0.02 0.02 0.03 0.03 0.04 0.05 0.05 0.06 0.07 0.08 0.08 0.10 0.11 0.12 0.15 0.17 0.18 0.15 0.12 0.10 0.09 0.09 0.08 0.09
0.00 0.00 0.00 0.00 0.00 0.00 0.00 0.00 0.00 0.01 0.02 0.02 0.02 0.02 0.01 0.01 0.01 0.01 0.01 0.02 0.02 0.03 0.03 0.04 0.04 0.05 0.05 0.06 0.08 0.09 0.12 0.12 0.11 0.12 0.15 0.18 0.17 0.17 0.15 0.13 0.11 0.11 0.11
0.00 0.00 0.00 0.00 0.00 0.00 0.00 0.00 0.00 0.01 0.02 0.02 0.01 0.01 0.01 0.01 0.01 0.01 0.01 0.01 0.02 0.02 0.03 0.03 0.04 0.04 0.05 0.06 0.08 0.11 0.12 0.10 0.09 0.10 0.13 0.16 0.19 0.19 0.19 0.19 0.16 0.15 0.14